Home > Time Zones > World Clock > Weather > Iran > Kerman > Past weeks

Flag for Iran Weather past 2 weeks in Kerman, Iran

Now
73 °F

Clear.


Feels Like: 76 °F
Forecast: 55 / 86 °F
Wind: 18 mph from Northwest

Location: Kerman Airport

Current Time: Sep 3, 2015 at 2:22:52 AM

Latest Report: Sep 3, 2015 at 1:30 AM


Visibility: 10 mi

Pressure: 30.07 "Hg (24.54 "Hg at 1762m altitude)

Humidity: 22%

Dew point: 32 °F

Location of KermanLocation

Historic Weather in Kerman — Graph

°F

Kerman temperature yesterday

Maximum temperature yesterday: 93 °F (at 2:30 PM)
Minimum temperature yesterday: 66 °F (at 5:30 AM)
Average temperature yesterday: 82 °F

Past Weeks' High & Low Weather Summary

 TemperatureHumidityPressure
High99 °F (Aug 24, 4:30 PM)34% (Aug 24, 3:30 PM)30.21 "Hg (Aug 24, 3:30 PM)
Low55 °F (Aug 19, 5:30 AM)0% (Aug 19, 5:30 PM)29.89 "Hg (Aug 24, 4:30 PM)
Average82 °F13%30.06 "Hg
* Reported Aug 19 12:30 AM — Sep 3 12:30 AM, Kerman, Weather by CustomWeather, © 2015

Note: Actual official high and low records may vary slightly from our data, if they occured in-between our weather recording intervals... More about our weather records

Advertising

Kerman weather history for previous 24 hours

 ConditionsComfort  
Time TempWeatherWind HumidityBarometerVisibility
12:30 AM
Thu, Sep 3
75 °FClear.14 mph21%30.07 "Hg10 mi
11:30 PM
Wed, Sep 2
75 °FClear.14 mph19%30.07 "Hg10 mi
10:30 PM77 °FClear.12 mph17%30.07 "Hg10 mi
9:30 PM79 °FPassing clouds.9 mph17%30.04 "Hg4 mi
8:30 PM82 °FSandstorm.14 mph14%30.01 "Hg3 mi
7:30 PM82 °FSandstorm.16 mph15%30.01 "Hg3 mi
6:30 PM88 °FScattered clouds.16 mph11%29.98 "Hg4 mi
5:30 PM90 °FPassing clouds.14 mph9%29.95 "Hg4 mi
4:30 PM91 °FPassing clouds.18 mph10%29.95 "Hg4 mi
3:30 PM91 °FPassing clouds.18 mph11%29.98 "Hg4 mi
2:30 PM93 °FScattered clouds.16 mph11%29.98 "Hg4 mi
2:00 PM91 °FPassing clouds.16 mph11%29.98 "Hg4 mi
1:30 PM91 °FScattered clouds.9 mph11%30.01 "HgN/A
12:30 PM91 °FScattered clouds.16 mph11%30.01 "HgN/A
12:00 PM91 °FScattered clouds.12 mph11%30.04 "HgN/A
11:30 AM91 °FPassing clouds.9 mph11%30.04 "HgN/A
11:20 AM91 °FPassing clouds.9 mph11%30.04 "HgN/A
11:00 AM91 °FPassing clouds.7 mph11%30.04 "HgN/A
10:30 AM90 °FPassing clouds.5 mph12%30.04 "HgN/A
10:00 AM88 °FPassing clouds.7 mph13%30.04 "HgN/A
9:30 AM84 °FSunny.7 mph15%30.04 "Hg10 mi
8:30 AM77 °FSunny.5 mph21%30.04 "Hg10 mi
7:30 AM72 °FPassing clouds.5 mph22%30.04 "HgN/A
6:30 AM68 °FPassing clouds.5 mph24%30.04 "HgN/A
5:30 AM66 °FPassing clouds.7 mph22%30.01 "HgN/A
4:30 AM68 °FPassing clouds.No wind20%30.01 "HgN/A
3:30 AM68 °FPassing clouds.No wind20%30.01 "HgN/A
2:30 AM70 °FPassing clouds.5 mph16%30.01 "HgN/A
Weather by CustomWeather, © 2015

See weather overviewHow to use our weather pages